STRAND-1

Last updated on Sun Dec 07 2025 00:03:11 GMT+0000 (Coordinated Universal Time)

1 39090U 13009E 25340.47257188 .00000771 00000+0 27438-3 0 9991 2 39090 98.3824 160.5246 0009785 87.4154 272.8153 14.36996980669384
UTC large
Height (km)
Speed (km/s)
/
Latitude / Longitude
Inclination (degrees)
Orbital Period (minutes)
Azimuth
Elevation
Range (km)
Doppler Factor

Next 0 passes for location: London (51.5072 / 0.1276)

Sorry there are no passes over London.